Regional Weather Roundup
Issued by NWS Northern Indiana

Home | Current Version | Previous Version | Text Only | Print | Product List | Glossary Off
Versions: 1 2 3 4 5 6 7 8 9 10 11 12 13 14 15 16 17 18 19 20 21 22 23 24 25 26 27 28 29 30 31 32 33 34 35 36 37 38 39 40 41 42 43 44 45 46 47 48 49 50

000
ASUS43 KIWX 301410
RWRIWX

KIWX WEATHER ROUNDUP
NATIONAL WEATHER SERVICE NORTHERN INDIANA
1000 AM EDT TUE SEP 30 2014

NOTE: "FAIR" INDICATES FEW OR NO CLOUDS BELOW 12,000 FEET WITH NO
SIGNIFICANT WEATHER AND/OR OBSTRUCTIONS TO VISIBILITY.

* THESE STATIONS ARE NOT UNDER NWS QUALITY CONTROL. THEY ALSO MAY NOT
  REPORT WEATHER SUCH AS PRECIPITATION OR FOG.

INZ001>027-301500-
NORTHERN INDIANA

CITY           SKY/WX    TMP DP  RH WIND       PRES   REMARKS
GARY*          PTSUNNY   54  50  87 N12G23    30.05R
VALPARAISO     CLOUDY    54  48  80 N9        30.03R
MICHIGAN CITY* PTSUNNY   52  46  82 N9G17     30.03S
LAPORTE*       CLOUDY    55  51  88 N10       30.03R
KNOX*          CLOUDY    53  47  81 N8        30.02R
SOUTH BEND     CLOUDY    52  45  76 N12       30.02
ELKHART*       CLOUDY    48  45  87 N6        30.02
MONTICELLO*    CLOUDY    54  49  83 N12       30.00S
LOGANSPORT*    CLOUDY    52  46  82 N9        30.02R
ROCHESTER*     CLOUDY    54  48  82 N9        30.01S
WARSAW*        CLOUDY    48  45  87 NW6       30.01S
ANGOLA*        CLOUDY    46  45  93 N6        30.00R
FORT WAYNE     PTSUNNY   51  48  89 NW7       30.00R
HUNTINGTON*    CLOUDY    51  49  95 N6        29.99R FOG
PERU/GRISSOM   CLOUDY    54  54 100 N8        30.00R FOG
MARION*        CLOUDY    54  50  87 N9        30.00R

$$
INZ028>050-301500-
CENTRAL INDIANA

CITY           SKY/WX    TMP DP  RH WIND       PRES   REMARKS
LAFAYETTE      CLOUDY    55  50  83 N10       30.01R
KOKOMO*        CLOUDY    55  48  76 N10       30.01R
MUNCIE*        CLOUDY    57  54  89 NW9       29.98R
INDIANAPOLIS   CLOUDY    58  55  90 N9        29.98S

$$
MIZ043>046-050>051-056>058-064>065-071>073-077>080-301500-
SOUTHWEST LOWER MICHIGAN

CITY           SKY/WX    TMP DP  RH WIND       PRES   REMARKS
BATTLE CREEK   LGT RAIN  50  47  89 N7        30.01R
COLDWATER*     CLOUDY    50  48  93 N7        30.00R
HILLSDALE*     CLOUDY    51  51  98 N6        29.98R FOG
GRAND RAPIDS   CLOUDY    51  47  86 N9        30.01F
KALAMAZOO      LGT RAIN  50  46  86 N10       30.01S FOG
STURGIS*       CLOUDY    48  46  93 N3        30.00R FOG
THREE RIVERS*  CLOUDY    50  47  90 N5        30.02R

$$
OHZ001>008-015>018-024>025-301500-
NORTHWEST OHIO

CITY           SKY/WX    TMP DP  RH WIND       PRES   REMARKS
WAUSEON*       CLOUDY    52  50  93 N8        29.98S
DEFIANCE       CLOUDY    52  47  83 N7        29.99S
FINDLAY        CLOUDY    53  51  93 N14       29.95S FOG
TOLEDO EXPRESS CLOUDY    52  50  93 NW7       29.97S
TOLEDO METCALF CLOUDY    55  49  80 N9        29.97S
LIMA           CLOUDY    56  54  93 N9        29.96R

$$
AND FOR LAKE MICHIGAN COASTAL AND OPEN LAKE BUOY OBSERVATIONS

STATION/POSITION TEMP    WIND        PRES    VSBY  WAVE
                 AIR SEA DIR/SP/G                  HT/PER
                 (F)     (DEG/KT/KT) (MB)    (MI)  (FT/S)
CALUMET HARBOR    54     360/ 12/ 15 1016.2S
MICHIGAN CITY     53     350/ 16/ 22   N/A
SAINT JOSEPH      52      CALM  /  6 1017.6R
SOUTH LAKE BUOY   52 61  360/ 17/ 21 1017.0F         6/ 8
4 MI NW BRIDGMAN  54 62   10/ 16/ 21   N/A           6/ 2
MICHIGAN CITY     55 64   10/ 14/ 19   N/A           7/ 2
MICHIGAN CITY CG     64                N/A       6   7
SAINT JOSEPH CG                      1016.1S     6   4

$$
&&


USA.gov is the U.S. government's official web portal to all federal, state and local government web resources and services.